Tracking 28790 objects as of 19-Apr-2024
HD Live streaming from Space Station
objects crossing your sky now

STARLINK-1938

Track STARLINK-1938 now!
10-day predictions
STARLINK-1938 is classified as:


NORAD ID: 47551
Int'l Code: 2021-009D
Perigee: 553.0 km
Apogee: 555.8 km
Inclination: 53.1 °
Period: 95.6 minutes
Semi major axis: 6925 km
RCS: Unknown
Launch date: February 4, 2021
Source: United States (US)
Launch site: AIR FORCE EASTERN TEST RANGE (AFETR)
Your satellite tracking list
Your tracking list is empty




NASA's NSSDC Master Catalog

Two Line Element Set (TLE):
1 47551U 21009D   24109.67732397  .00014752  00000-0  10076-2 0  9999
2 47551  53.0539 239.2002 0002091  55.2003 304.9182 15.06383523177406
Source of the keplerian elements: AFSPC